TimeCDT,TemperatureF,Dew PointF,Humidity,Sea Level PressureIn,VisibilityMPH,Wind Direction,Wind SpeedMPH,Gust SpeedMPH,PrecipitationIn,Events,Conditions,WindDirDegrees,DateUTC
12:15 AM,32.0,27.3,83,29.99,4.0,West,5.8,-,N/A,Snow,Light Snow,280,2013-03-26 05:15:00
12:35 AM,32.0,27.0,82,29.99,7.0,WNW,8.1,-,N/A,Snow,Light Snow,290,2013-03-26 05:35:00
12:55 AM,32.0,27.3,83,29.99,5.0,West,5.8,-,N/A,Snow,Light Snow,280,2013-03-26 05:55:00
1:15 AM,32.0,27.1,82,29.99,7.0,WNW,5.8,-,N/A,Snow,Light Snow,300,2013-03-26 06:15:00
1:35 AM,32.0,27.5,83,29.99,5.0,West,6.9,-,N/A,Snow,Light Snow,280,2013-03-26 06:35:00
1:55 AM,32.0,27.5,83,30.00,7.0,WNW,9.2,-,N/A,Snow,Light Snow,290,2013-03-26 06:55:00
2:15 AM,32.0,27.5,83,30.00,10.0,WNW,5.8,-,N/A,,Overcast,300,2013-03-26 07:15:00
2:35 AM,32.0,27.3,83,30.00,10.0,WNW,4.6,-,N/A,,Overcast,300,2013-03-26 07:35:00
2:55 AM,32.0,27.3,83,30.00,10.0,WNW,6.9,-,N/A,Snow,Light Snow,300,2013-03-26 07:55:00
3:15 AM,32.0,27.5,83,30.00,5.0,WNW,3.5,-,N/A,Snow,Light Snow,290,2013-03-26 08:15:00
3:35 AM,32.0,28.2,86,30.00,3.0,Calm,Calm,-,0.01,Snow,Light Snow,0,2013-03-26 08:35:00
3:55 AM,31.6,28.6,88,30.00,3.0,Calm,Calm,-,0.01,Snow,Light Snow,0,2013-03-26 08:55:00
4:15 AM,31.6,28.6,88,30.00,4.0,WNW,3.5,-,N/A,Snow,Light Snow,300,2013-03-26 09:15:00
4:35 AM,31.8,28.4,87,30.00,4.0,Calm,Calm,-,N/A,Snow,Light Snow,0,2013-03-26 09:35:00
4:55 AM,31.8,28.2,87,30.00,5.0,WNW,3.5,-,N/A,Snow,Light Snow,300,2013-03-26 09:55:00
5:15 AM,32.0,27.5,83,30.00,7.0,NW,11.5,-,N/A,Snow,Light Snow,310,2013-03-26 10:15:00
5:35 AM,32.0,27.5,83,30.01,10.0,WNW,6.9,-,N/A,Snow,Light Snow,300,2013-03-26 10:35:00
5:55 AM,32.0,27.5,83,30.01,10.0,NW,8.1,-,N/A,Snow,Light Snow,320,2013-03-26 10:55:00
6:15 AM,32.2,27.0,81,30.02,10.0,WNW,6.9,-,N/A,,Overcast,300,2013-03-26 11:15:00
6:35 AM,32.2,27.0,81,30.02,10.0,NW,4.6,-,N/A,Snow,Light Snow,310,2013-03-26 11:35:00
6:55 AM,32.2,27.0,81,30.03,10.0,NW,5.8,-,N/A,,Overcast,320,2013-03-26 11:55:00
7:15 AM,32.4,27.1,81,30.04,10.0,NW,6.9,-,N/A,,Overcast,310,2013-03-26 12:15:00
7:35 AM,32.4,27.7,83,30.05,5.0,NW,3.5,-,N/A,Snow,Light Snow,310,2013-03-26 12:35:00
7:55 AM,32.4,28.0,84,30.06,7.0,West,5.8,-,N/A,,Overcast,280,2013-03-26 12:55:00
8:15 AM,32.5,27.9,83,30.07,5.0,NW,4.6,-,N/A,Snow,Light Snow,310,2013-03-26 13:15:00
8:35 AM,33.1,27.5,80,30.08,10.0,NW,6.9,-,N/A,,Overcast,320,2013-03-26 13:35:00
8:55 AM,32.9,28.0,82,30.09,7.0,NW,4.6,-,N/A,Snow,Light Snow,310,2013-03-26 13:55:00
9:15 AM,32.9,27.5,81,30.09,5.0,WNW,4.6,-,N/A,Snow,Light Snow,300,2013-03-26 14:15:00
9:35 AM,32.9,27.5,81,30.10,7.0,NNW,4.6,-,N/A,Snow,Light Snow,330,2013-03-26 14:35:00
9:55 AM,32.9,28.2,83,30.11,5.0,WNW,4.6,-,N/A,Snow,Light Snow,300,2013-03-26 14:55:00
10:15 AM,32.9,28.2,83,30.12,4.0,NW,8.1,-,N/A,Snow,Light Snow,310,2013-03-26 15:15:00
10:35 AM,33.8,27.7,78,30.12,10.0,West,5.8,-,N/A,,Overcast,280,2013-03-26 15:35:00
10:55 AM,33.6,27.1,77,30.13,7.0,WNW,11.5,17.3,N/A,,Overcast,300,2013-03-26 15:55:00
11:15 AM,33.8,27.0,76,30.14,10.0,NNW,4.6,-,N/A,,Overcast,330,2013-03-26 16:15:00
11:35 AM,34.0,27.1,76,30.14,10.0,NW,8.1,-,N/A,,Overcast,310,2013-03-26 16:35:00
11:55 AM,34.3,27.7,77,30.14,7.0,WNW,6.9,18.4,N/A,Snow,Light Snow,290,2013-03-26 16:55:00
12:15 PM,34.0,27.7,78,30.14,7.0,NW,4.6,-,N/A,Snow,Light Snow,320,2013-03-26 17:15:00
12:35 PM,34.5,28.2,78,30.15,7.0,WNW,6.9,-,N/A,Snow,Light Snow,290,2013-03-26 17:35:00
12:55 PM,34.2,28.2,79,30.15,7.0,NW,8.1,-,N/A,Snow,Light Snow,320,2013-03-26 17:55:00
1:15 PM,34.3,28.0,78,30.15,5.0,NW,8.1,-,N/A,Snow,Light Snow,320,2013-03-26 18:15:00
1:35 PM,35.1,28.8,78,30.15,10.0,NW,4.6,-,N/A,Snow,Light Snow,310,2013-03-26 18:35:00
1:55 PM,34.5,28.6,79,30.16,5.0,NW,4.6,-,N/A,Snow,Light Snow,320,2013-03-26 18:55:00
2:15 PM,35.2,29.5,80,30.16,5.0,NW,5.8,-,N/A,Snow,Light Snow,310,2013-03-26 19:15:00
2:35 PM,35.1,30.0,82,30.16,4.0,NNW,4.6,-,N/A,Snow,Light Snow,330,2013-03-26 19:35:00
2:55 PM,35.8,29.5,78,30.16,7.0,NW,8.1,-,N/A,Snow,Light Snow,320,2013-03-26 19:55:00
3:15 PM,33.1,30.7,91,30.17,1.2,NNW,4.6,-,0.01,Snow,Light Snow,340,2013-03-26 20:15:00
3:35 PM,34.5,31.8,90,30.16,7.0,Calm,Calm,-,0.01,Snow,Light Snow,0,2013-03-26 20:35:00
3:55 PM,36.0,28.8,75,30.16,10.0,NW,6.9,-,0.01,Rain,Light Rain,320,2013-03-26 20:55:00
4:15 PM,35.8,29.3,77,30.17,7.0,WNW,6.9,-,N/A,Snow,Light Snow,290,2013-03-26 21:15:00
4:35 PM,35.2,31.1,85,30.17,7.0,SW,4.6,-,N/A,,Overcast,220,2013-03-26 21:35:00
4:55 PM,36.5,28.8,74,30.17,10.0,NNW,8.1,-,N/A,,Overcast,330,2013-03-26 21:55:00
5:15 PM,34.7,30.2,84,30.18,2.0,WNW,5.8,-,N/A,Snow,Light Snow,290,2013-03-26 22:15:00
5:35 PM,33.3,31.8,94,30.18,5.0,Calm,Calm,-,N/A,Snow,Light Snow,0,2013-03-26 22:35:00
5:55 PM,34.3,30.6,86,30.19,7.0,West,3.5,-,N/A,Snow,Light Snow,260,2013-03-26 22:55:00
6:15 PM,34.7,30.0,83,30.20,10.0,Calm,Calm,-,N/A,,Overcast,0,2013-03-26 23:15:00
6:35 PM,34.0,31.1,89,30.21,2.5,West,3.5,-,N/A,Snow,Light Snow,280,2013-03-26 23:35:00
6:55 PM,33.3,31.3,92,30.21,10.0,West,3.5,-,N/A,,Overcast,280,2013-03-26 23:55:00
7:15 PM,34.2,28.9,81,30.22,10.0,WNW,6.9,-,N/A,,Overcast,290,2013-03-27 00:15:00
7:35 PM,34.0,29.7,84,30.22,5.0,West,5.8,-,N/A,Snow,Light Snow,280,2013-03-27 00:35:00
7:55 PM,34.0,29.8,85,30.23,5.0,NW,11.5,-,N/A,Snow,Light Snow,310,2013-03-27 00:55:00
8:15 PM,34.2,29.7,84,30.24,7.0,NW,8.1,-,N/A,Snow,Light Snow,310,2013-03-27 01:15:00
8:35 PM,34.2,29.5,83,30.25,7.0,NW,5.8,-,N/A,Snow,Light Snow,310,2013-03-27 01:35:00
8:55 PM,34.3,29.1,81,30.25,10.0,NW,8.1,-,N/A,,Overcast,310,2013-03-27 01:55:00
9:15 PM,34.5,29.3,81,30.26,10.0,West,5.8,-,N/A,,Overcast,280,2013-03-27 02:15:00
9:35 PM,34.7,29.1,80,30.26,10.0,WNW,5.8,-,N/A,,Overcast,300,2013-03-27 02:35:00
9:55 PM,34.9,28.4,77,30.26,10.0,NW,6.9,-,N/A,Snow,Light Snow,310,2013-03-27 02:55:00
10:15 PM,34.3,29.3,82,30.27,7.0,Calm,Calm,-,N/A,Snow,Light Snow,0,2013-03-27 03:15:00
10:35 PM,34.5,29.3,81,30.26,10.0,NW,4.6,-,N/A,,Overcast,310,2013-03-27 03:35:00
10:55 PM,34.7,28.0,77,30.26,10.0,NW,6.9,-,N/A,,Overcast,320,2013-03-27 03:55:00
11:15 PM,34.7,28.0,77,30.27,10.0,WNW,5.8,-,N/A,,Overcast,300,2013-03-27 04:15:00
11:35 PM,34.7,28.2,77,30.27,10.0,WNW,4.6,-,N/A,,Overcast,300,2013-03-27 04:35:00
11:55 PM,34.3,27.5,76,30.27,10.0,NW,6.9,-,N/A,,Overcast,320,2013-03-27 04:55:00